KALMAR current weather conditions

sailwx.info

Wind from 180 at 14 knots

Air temperature 4.0° C
Visibility: greater than 5.4 NM
Dewpoint 2.0° C

Last reported at 2016-Feb-10 07:20 UTC.
Time now 2016-Feb-10 08:53 UTC

Location: N 56°44' E 016°18'.
View on Google Maps.

See reports from other nearby stations

  
Tides and Currents Weather Stations Pressure Air Temp Water Temp Dewpoint Dewpoint Depression Visibility Wind Speed Wind Dir Waves Ship Positions
date/time (UTC)wind fromknots sea level pressurealtimeterstation pressurevisibilityair tempwater tempwave heightnotes
2016-Feb-10 07:20 180 14 5.4 4.0
2016-Feb-10 06:50 180 15 5.4 4.0
2016-Feb-10 06:20 180 17 gusting 29 5.4 4.0
2016-Feb-10 05:50 180 17 5.4 6.0
2016-Feb-10 05:20 160 12 5.4 6.0
2016-Feb-10 04:50 140 11 5.4 5.0
2016-Feb-10 04:20 140 12 5.4 5.0
2016-Feb-10 03:50 130 12 3.8 5.0 Light rain.
2016-Feb-10 03:20 120 12 3.8 5.0 Light rain.
2016-Feb-10 02:50 110 13 5.4 5.0 Light rain.
2016-Feb-10 02:20 080 10 5.4 4.0 Light rain.
2016-Feb-10 01:50 110 7 2.7 4.0 Light rain.
2016-Feb-10 01:20 120 6 5.4 4.0 Light rain.
2016-Feb-10 00:50 120 7 3.8 4.0 Light rain.
2016-Feb-10 00:20 130 9 5.4 4.0
2016-Feb-09 23:50 120 8 5.4 4.0 Drizzle.
2016-Feb-09 23:20 120 6 5.4 3.0 Light drizzle.
2016-Feb-09 22:50 070 3 5.4 2.0
2016-Feb-09 22:20 060 5 5.4 2.0
2016-Feb-09 21:50 090 3 5.4 3.0
2016-Feb-09 21:20 120 4 5.4 3.0
2016-Feb-09 20:50 160 7 3.0
2016-Feb-09 20:20 160 6 5.4 3.0
2016-Feb-09 19:50 180 7 5.4 4.0
2016-Feb-09 19:20 180 9 5.4 4.0
2016-Feb-09 18:50 190 8 5.4 3.0
2016-Feb-09 18:20 170 7 3.0
2016-Feb-09 17:50 190 7 5.4 4.0
2016-Feb-09 17:20 190 8 5.4 5.0
2016-Feb-09 16:50 210 10 5.4 6.0
2016-Feb-09 16:20 210 9 5.4 6.0
2016-Feb-09 15:50 210 11 5.4 6.0
2016-Feb-09 15:20 220 11 5.4 6.0
2016-Feb-09 14:50 220 11 5.4 6.0
2016-Feb-09 14:20 220 9 5.4 6.0
2016-Feb-09 13:50 230 12 5.4 6.0
2016-Feb-09 13:20 210 11 5.4 6.0
2016-Feb-09 12:50 220 13 5.4 7.0
2016-Feb-09 12:20 210 13 5.4 7.0
2016-Feb-09 11:50 240 15 5.4 7.0
2016-Feb-09 11:20 230 13 5.4 7.0
2016-Feb-09 10:50 230 14 5.4 6.0
2016-Feb-09 10:20 220 12 3.8 6.0 Mist.
2016-Feb-09 09:50 220 11 5.4 6.0
2016-Feb-09 09:20 210 11 5.4 6.0
2016-Feb-09 08:50 210 11 5.4 6.0
2016-Feb-09 08:20 220 11 5.4 6.0
2016-Feb-09 07:50 210 10 5.4 5.0
2016-Feb-09 07:20 210 12 5.4 5.0
2016-Feb-09 06:50 210 12 5.4 5.0
2016-Feb-09 06:20 210 13 5.4 5.0
2016-Feb-09 05:50 210 15 5.4 5.0 Light drizzle.
2016-Feb-09 05:20 210 14 5.4 5.0 Drizzle.
2016-Feb-09 04:50 200 12 5.4 5.0 Drizzle.
2016-Feb-09 04:20 200 13 5.4 5.0 Light drizzle.
2016-Feb-09 03:50 180 10 4.3 5.0 Light drizzle.
2016-Feb-09 03:20 200 14 5.4 5.0 Light rain.
2016-Feb-09 02:50 200 12 5.4 5.0 Drizzle.
2016-Feb-09 02:20 200 11 5.4 5.0 Light drizzle.
2016-Feb-09 01:50 180 9 5.4 3.0
2016-Feb-09 01:20 180 11 5.4 3.0
2016-Feb-09 00:50 180 9 5.4 5.0
2016-Feb-09 00:20 190 10 5.4 5.0
2016-Feb-08 23:50 210 9 5.4 5.0 Light rain.
2016-Feb-08 23:20 210 8 5.4 5.0 Light rain.
2016-Feb-08 22:50 210 8 5.4 5.0 Drizzle.
2016-Feb-08 22:20 190 7 1.6 4.0 Light rain.
2016-Feb-08 21:50 180 7 5.4 3.0
2016-Feb-08 21:20 170 6 5.4 4.0
2016-Feb-08 20:50 190 7 5.4 4.0
2016-Feb-08 20:20 180 9 5.4 3.0
2016-Feb-08 19:50 180 8 5.4 3.0
2016-Feb-08 19:20 180 10 5.4 4.0
2016-Feb-08 18:50 190 13 5.4 5.0
2016-Feb-08 18:20 180 13 5.4 5.0 Light drizzle.
2016-Feb-08 17:50 190 14 5.4 4.0 Light rain.
2016-Feb-08 17:20 190 15 5.4 5.0 Drizzle.
2016-Feb-08 16:50 180 13 5.4 4.0 Light drizzle.
2016-Feb-08 16:20 180 13 4.9 4.0 Drizzle.
2016-Feb-08 15:50 170 14 4.3 4.0 Light drizzle.
2016-Feb-08 15:20 180 16 4.3 4.0 Light rain.
2016-Feb-08 14:50 190 16 4.3 4.0 Light rain.
2016-Feb-08 14:20 190 16 4.3 4.0 Light rain.
2016-Feb-08 13:50 180 16 2.4 4.0 Light rain.
2016-Feb-08 13:20 170 15 4.9 4.0 Mist.
2016-Feb-08 12:50 170 16 2.6 4.0 Light drizzle.
2016-Feb-08 12:20 170 16 3.2 4.0 Mist.
2016-Feb-08 11:50 170 17 5.4 4.0
2016-Feb-08 11:20 170 16 5.4 4.0
2016-Feb-08 10:50 170 17 5.4 4.0
2016-Feb-08 10:20 170 17 5.4 4.0
2016-Feb-08 09:50 180 17 5.4 4.0
2016-Feb-08 09:20 170 16 4.9 4.0 Mist.
2016-Feb-08 08:50 170 15 5.4 4.0
2016-Feb-08 08:20 180 14 5.4 4.0